• In Belarus
  • List of Countries
  • For 7 days
  • Water Temperature
  • Satellite Maps
  • Weather Map
  • Weather Widgets
  • user-avatar
    Login

    Hourly Weather Chakhansur

    Today, 16 January, Wednesday

    Time Temperature Precipitation Wind Pressure Humidity
    00:00 +16°C° 0 mm 0 mps 719 mmHg 25%
    01:00 +16°C° 0 mm 0 mps 719 mmHg 26%
    02:00 +18°C° 0 mm 1 mps 719 mmHg 27%
    03:00 +18°C° 0 mm 1 mps 719 mmHg 28%
    04:00 +16°C° 0 mm 2 mps 719 mmHg 27%
    05:00 +16°C° 0 mm 2 mps 719 mmHg 30%
    06:00 +15°C° 0 mm 2 mps 720 mmHg 33%
    07:00 +15°C° 0 mm 2 mps 720 mmHg 35%
    08:00 +16°C° 0 mm 1 mps 720 mmHg 32%
    09:00 +19°C° 0 mm 1 mps 721 mmHg 28%
    10:00 +21°C° 0 mm 1 mps 721 mmHg 25%
    11:00 +22°C° 0 mm 1 mps 721 mmHg 23%
    12:00 +23°C° 0 mm 1 mps 720 mmHg 21%
    13:00 +24°C° 0 mm 1 mps 720 mmHg 20%
    14:00 +24°C° 0 mm 1 mps 720 mmHg 19%
    15:00 +25°C° 0 mm 1 mps 720 mmHg 19%
    16:00 +25°C° 0 mm 1 mps 719 mmHg 19%
    17:00 +23°C° 0 mm 1 mps 719 mmHg 21%
    18:00 +22°C° 0 mm 1 mps 719 mmHg 23%
    19:00 +21°C° 0 mm 1 mps 719 mmHg 24%
    20:00 +20°C° 0 mm 2 mps 719 mmHg 25%
    21:00 +19°C° 0 mm 2 mps 719 mmHg 26%
    22:00 +19°C° 0 mm 2 mps 719 mmHg 27%
    23:00 +19°C° 0 mm 2 mps 719 mmHg 27%

    Tomorrow, 17 January, Thursday

    Time Temperature Precipitation Wind Pressure Humidity
    00:00 +19°C° 0 mm 3 mps 719 mmHg 28%
    01:00 +18°C° 0 mm 3 mps 719 mmHg 29%
    02:00 +18°C° 0 mm 3 mps 719 mmHg 31%
    03:00 +18°C° 0 mm 3 mps 718 mmHg 33%
    04:00 +17°C° 0 mm 3 mps 718 mmHg 34%
    05:00 +17°C° 0 mm 3 mps 718 mmHg 35%
    06:00 +17°C° 0 mm 3 mps 718 mmHg 36%
    07:00 +16°C° 0 mm 3 mps 718 mmHg 37%
    08:00 +18°C° 0 mm 4 mps 719 mmHg 34%
    09:00 +20°C° 0 mm 4 mps 719 mmHg 30%
    10:00 +22°C° 0 mm 4 mps 719 mmHg 26%
    11:00 +25°C° 0 mm 4 mps 718 mmHg 24%
    12:00 +26°C° 0 mm 4 mps 718 mmHg 21%
    13:00 +28°C° 0 mm 5 mps 717 mmHg 19%
    14:00 +28°C° 0 mm 4 mps 716 mmHg 19%
    15:00 +29°C° 0 mm 3 mps 716 mmHg 18%
    16:00 +29°C° 0 mm 2 mps 715 mmHg 18%
    17:00 +28°C° 0 mm 3 mps 715 mmHg 19%
    18:00 +27°C° 0 mm 4 mps 715 mmHg 19%
    19:00 +26°C° 0 mm 4 mps 715 mmHg 20%
    20:00 +26°C° 0 mm 4 mps 715 mmHg 22%
    21:00 +25°C° 0 mm 5 mps 714 mmHg 23%
    22:00 +23°C° 0 mm 5 mps 714 mmHg 25%
    23:00 +23°C° 0 mm 5 mps 714 mmHg 25%

    Day after tomorrow, 18 January, Friday

    Time Temperature Precipitation Wind Pressure Humidity
    00:00 +23°C° 0 mm 5 mps 713 mmHg 25%
    01:00 +23°C° 0 mm 5 mps 713 mmHg 25%
    02:00 +23°C° 0.1 mm 6 mps 713 mmHg 28%
    03:00 +22°C° 0.1 mm 7 mps 713 mmHg 31%
    04:00 +21°C° 0.1 mm 8 mps 713 mmHg 35%
    05:00 +21°C° 0 mm 7 mps 713 mmHg 36%
    06:00 +20°C° 0 mm 7 mps 714 mmHg 38%
    07:00 +20°C° 0 mm 6 mps 714 mmHg 39%
    08:00 +21°C° 0 mm 7 mps 715 mmHg 36%
    09:00 +22°C° 0 mm 7 mps 716 mmHg 32%
    10:00 +23°C° 0 mm 8 mps 717 mmHg 28%
    11:00 +23°C° 0 mm 7 mps 717 mmHg 21%
    12:00 +23°C° 0 mm 6 mps 717 mmHg 15%
    13:00 +23°C° 0 mm 5 mps 716 mmHg 8%
    14:00 +23°C° 0 mm 5 mps 716 mmHg 7%
    15:00 +23°C° 0 mm 4 mps 716 mmHg 5%
    16:00 +23°C° 0 mm 4 mps 716 mmHg 4%
    17:00 +22°C° 0 mm 4 mps 716 mmHg 5%
    18:00 +21°C° 0 mm 4 mps 716 mmHg 6%
    19:00 +19°C° 0 mm 4 mps 717 mmHg 7%
    20:00 +19°C° 0 mm 4 mps 717 mmHg 7%
    21:00 +18°C° 0 mm 4 mps 717 mmHg 7%
    22:00 +18°C° 0 mm 3 mps 717 mmHg 8%
    23:00 +17°C° 0 mm 3 mps 717 mmHg 8%

    19 January, Saturday

    Time Temperature Precipitation Wind Pressure Humidity
    00:00 +16°C° 0 mm 2 mps 716 mmHg 9%
    01:00 +16°C° 0 mm 2 mps 716 mmHg 9%
    02:00 +15°C° 0 mm 2 mps 716 mmHg 11%
    03:00 +13°C° 0 mm 3 mps 716 mmHg 13%
    04:00 +13°C° 0 mm 3 mps 715 mmHg 15%
    05:00 +12°C° 0 mm 3 mps 716 mmHg 17%
    06:00 +13°C° 0 mm 2 mps 716 mmHg 19%
    07:00 +12°C° 0 mm 2 mps 716 mmHg 21%
    08:00 +14°C° 0 mm 2 mps 716 mmHg 21%
    09:00 +14°C° 0 mm 3 mps 717 mmHg 20%
    10:00 +16°C° 0 mm 3 mps 717 mmHg 19%
    11:00 +17°C° 0 mm 3 mps 716 mmHg 20%
    12:00 +18°C° 0 mm 2 mps 716 mmHg 21%
    13:00 +20°C° 0 mm 2 mps 715 mmHg 22%
    14:00 +20°C° 0 mm 2 mps 715 mmHg 22%
    15:00 +20°C° 0 mm 2 mps 714 mmHg 23%
    16:00 +20°C° 0 mm 2 mps 714 mmHg 24%
    17:00 +19°C° 0 mm 2 mps 714 mmHg 24%
    18:00 +18°C° 0 mm 3 mps 714 mmHg 24%
    19:00 +17°C° 0 mm 3 mps 714 mmHg 25%
    20:00 +15°C° 0 mm 5 mps 715 mmHg 26%
    21:00 +14°C° 0 mm 6 mps 715 mmHg 28%
    22:00 +12°C° 0 mm 7 mps 715 mmHg 30%
    23:00 +12°C° 0 mm 8 mps 716 mmHg 32%

    20 January, Sunday

    Time Temperature Precipitation Wind Pressure Humidity
    00:00 +11°C° 0 mm 8 mps 716 mmHg 34%
    01:00 +11°C° 0 mm 9 mps 716 mmHg 35%
    02:00 +10°C° 0 mm 9 mps 717 mmHg 36%
    03:00 +8°C° 0 mm 9 mps 717 mmHg 37%
    04:00 +8°C° 0 mm 9 mps 718 mmHg 38%
    05:00 +7°C° 0 mm 9 mps 719 mmHg 39%
    06:00 +7°C° 0 mm 9 mps 720 mmHg 41%
    07:00 +6°C° 0 mm 8 mps 721 mmHg 42%
    08:00 +7°C° 0 mm 9 mps 721 mmHg 39%
    09:00 +8°C° 0 mm 9 mps 722 mmHg 37%
    10:00 +10°C° 0 mm 9 mps 722 mmHg 34%
    11:00 +11°C° 0 mm 9 mps 722 mmHg 32%
    12:00 +11°C° 0 mm 9 mps 722 mmHg 29%
    13:00 +12°C° 0 mm 8 mps 721 mmHg 27%
    14:00 +12°C° 0 mm 8 mps 721 mmHg 25%
    15:00 +12°C° 0 mm 8 mps 721 mmHg 23%
    16:00 +12°C° 0 mm 8 mps 720 mmHg 21%
    17:00 +11°C° 0 mm 7 mps 721 mmHg 22%
    18:00 +10°C° 0 mm 6 mps 721 mmHg 22%
    19:00 +9°C° 0 mm 5 mps 722 mmHg 23%
    20:00 +9°C° 0 mm 5 mps 722 mmHg 27%
    21:00 +8°C° 0 mm 5 mps 722 mmHg 31%
    22:00 +7°C° 0 mm 5 mps 722 mmHg 34%
    23:00 +7°C° 0 mm 5 mps 722 mmHg 36%

    21 January, Monday

    Time Temperature Precipitation Wind Pressure Humidity
    00:00 +5°C° 0 mm 6 mps 722 mmHg 37%
    01:00 +5°C° 0 mm 6 mps 722 mmHg 39%
    02:00 +4°C° 0 mm 6 mps 722 mmHg 40%
    03:00 +4°C° 0 mm 6 mps 722 mmHg 42%
    04:00 +3°C° 0 mm 6 mps 722 mmHg 44%
    05:00 +3°C° 0 mm 6 mps 722 mmHg 46%
    06:00 +3°C° 0 mm 5 mps 722 mmHg 48%
    07:00 +2°C° 0 mm 5 mps 722 mmHg 50%
    08:00 +3°C° 0 mm 5 mps 723 mmHg 46%
    09:00 +6°C° 0 mm 5 mps 723 mmHg 43%
    10:00 +7°C° 0 mm 5 mps 723 mmHg 39%
    11:00 +8°C° 0 mm 5 mps 723 mmHg 36%
    12:00 +10°C° 0 mm 4 mps 722 mmHg 33%
    13:00 +11°C° 0 mm 4 mps 721 mmHg 29%
    14:00 +11°C° 0 mm 4 mps 721 mmHg 28%
    15:00 +12°C° 0 mm 3 mps 721 mmHg 27%
    16:00 +12°C° 0 mm 3 mps 720 mmHg 26%
    17:00 +11°C° 0 mm 3 mps 720 mmHg 28%
    18:00 +10°C° 0 mm 3 mps 721 mmHg 29%
    19:00 +10°C° 0 mm 3 mps 721 mmHg 31%
    20:00 +9°C° 0 mm 3 mps 721 mmHg 32%
    21:00 +9°C° 0 mm 2 mps 721 mmHg 33%
    22:00 +8°C° 0 mm 2 mps 721 mmHg 34%
    23:00 +8°C° 0 mm 2 mps 720 mmHg 35%
    Show more